Location: ????????
(55.5667°N, 37.5833°E)
Time: 17:25:19
(UTC+00:00)

Cosmos 1346 Rocket - Pass Details

Date: 14 April 2026
Orbit: 472 x 484 km, 81.2° (Epoch: 16 May)

Event Time Altitude Azimuth Distance (km) Brightness Sun altitude
Rises 18:32:30 0° 346° (NNW) 2,544 7.3 -15.1°
Reaches altitude 10° 18:34:37 10° 348° (NNW) 1,659 6.1 -15.3°
Maximum altitude 18:38:14 75° 74° (ENE) 499 2.4 -15.7°
Enters shadow 18:39:42 34° 154° (SSE) 809 3.1 -15.8°
